User: anonymous   Login
Location: Aulnoy
(48.8410°N, 3.0967°E)
Time: 00:48:09
(UTC+00:00)
Language:

BREEZE-M DEB (TANK) - Orbit

View from above orbital plane
View from above orbital plane
View from above satellite
View from above satellite

Ground track
Ground track

The orbit data is extracted from the following two-line orbital elements,

1 29528U 06051C   24101.41497743  .00000130  00000-0  75649-3 0  9993
2 29528  51.1010 219.3207 6047415 239.0149  50.2891  3.64275565231829
Epoch (UTC): 10 April 2024 09:57:34
Eccentricity: 0.6047415
inclination: 51.1010°
perigee height: 674 km
apogee height: 22254 km
right ascension of ascending node: 219.3207°
argument of perigee: 239.0149°
revolutions per day: 3.64275565
mean anomaly at epoch: 50.2891°
orbit number at epoch: 23182

The dashed part of the orbit path shows where the satellite is in the earth's shadow,  

DLR